GW0795 Weather Reports


time (UTC)temp
F
wind
direction
speed
knots
gust
knots
rain 1hr
in
rain 24hr
in
rain mn
in
humidity
%
barometer
mb
20260901083014 58 5 0.0 0.0 0.00 0.00 0.00 80 1009.0
20260901082511 59 5 0.0 0.0 0.00 0.00 0.00 79 1009.1
20260901082011 59 5 0.0 0.0 0.00 0.00 0.00 79 1009.0
20260901081518 59 5 0.0 0.0 0.00 0.00 0.00 79 1009.0
20260901081011 59 5 0.0 0.0 0.00 0.00 0.00 79 1009.0
20260901080514 60 5 0.0 0.0 0.00 0.00 0.00 78 1008.9
20260901080025 60 5 0.0 0.0 0.00 0.00 0.00 76 1008.9
20260901075504 61 5 0.0 0.0 0.00 0.00 0.00 75 1008.9
20260901075004 61 5 0.0 0.0 0.00 0.00 0.00 75 1008.9
20260901074509 61 30 0.0 0.0 0.00 0.00 0.00 75 1008.8
20260901074003 61 30 0.0 0.0 0.00 0.00 0.00 75 1008.8
20260901073507 61 30 0.0 0.0 0.00 0.00 0.00 75 1008.8
20260901073019 61 30 0.0 1.7 0.00 0.00 0.00 75 1008.8
20260901072510 61 30 0.0 1.7 0.00 0.00 0.00 75 1008.9
20260901072011 62 34 0.0 1.7 0.00 0.00 0.00 75 1008.9
20260901071515 62 44 0.0 0.0 0.00 0.00 0.00 74 1008.9
20260901071014 62 46 0.0 0.9 0.00 0.00 0.00 74 1008.8
20260901070512 61 62 0.9 0.9 0.00 0.00 0.00 74 1008.8
20260901070007 61 69 0.0 1.7 0.00 0.00 0.00 74 1008.8
20260901065506 61 69 0.0 1.7 0.00 0.00 0.00 74 1008.8
20260901065004 62 69 0.0 1.7 0.00 0.00 0.00 74 1008.8
20260901064509 62 69 0.0 0.9 0.00 0.00 0.00 74 1008.7
20260901064004 62 11 0.0 0.0 0.00 0.00 0.00 74 1008.8
20260901063503 62 17 0.0 0.0 0.00 0.00 0.00 73 1008.8
20260901063007 62 19 0.0 0.0 0.00 0.00 0.00 73 1008.9
20260901062508 62 19 0.0 0.0 0.00 0.00 0.00 73 1008.8
20260901062008 63 19 0.0 0.0 0.00 0.00 0.00 73 1008.8
20260901061514 63 15 0.0 0.0 0.00 0.00 0.00 72 1008.9
20260901061012 63 15 0.0 0.0 0.00 0.00 0.00 72 1008.9
20260901060509 63 18 0.0 1.7 0.00 0.00 0.00 72 1008.9
20260901060022 63 5 0.0 1.7 0.00 0.00 0.00 71 1009.0
20260901055513 63 360 0.0 1.7 0.00 0.00 0.00 71 1008.9
20260901055012 63 352 0.9 2.6 0.00 0.00 0.00 70 1009.0
20260901054504 63 25 0.9 2.6 0.00 0.00 0.00 70 1009.0
20260901054004 63 30 0.0 1.7 0.00 0.00 0.00 70 1009.0
20260901053504 63 28 0.0 2.6 0.00 0.00 0.00 70 1009.0
20260901053012 64 53 0.9 2.6 0.00 0.00 0.00 70 1009.1
20260901052505 64 46 0.0 1.7 0.00 0.00 0.00 69 1009.1
20260901052007 64 49 0.0 2.6 0.00 0.00 0.00 69 1009.1
20260901051513 64 5 0.9 2.6 0.00 0.00 0.00 69 1009.1
20260901051008 64 345 0.0 2.6 0.00 0.00 0.00 68 1009.2
20260901050507 64 351 0.9 2.6 0.00 0.00 0.00 68 1009.2
20260901050016 64 352 0.0 2.6 0.00 0.00 0.00 68 1009.1
20260901045513 64 49 0.9 1.7 0.00 0.00 0.00 68 1009.1
20260901045012 64 5 0.9 1.7 0.00 0.00 0.00 68 1009.1
20260901044523 64 11 0.9 3.5 0.00 0.00 0.00 68 1009.2
20260901044012 64 343 0.9 3.5 0.00 0.00 0.00 68 1009.2
20260901043516 64 342 0.9 2.6 0.00 0.00 0.00 68 1009.2
20260901043006 64 346 0.0 0.0 0.00 0.00 0.00 68 1009.1
20260901042504 64 346 0.0 1.7 0.00 0.00 0.00 68 1009.1
20260901042005 64 346 0.0 1.7 0.00 0.00 0.00 68 1009.2
20260901041509 64 23 0.0 1.7 0.00 0.00 0.00 68 1009.1
20260901041010 64 5 0.0 1.7 0.00 0.00 0.00 68 1009.1
20260901040509 64 5 0.0 1.7 0.00 0.00 0.00 68 1009.1
20260901040019 65 5 0.0 1.7 0.00 0.00 0.00 67 1008.9
20260901035515 65 5 0.0 1.7 0.00 0.00 0.00 66 1008.8
20260901035013 65 5 0.0 2.6 0.00 0.00 0.00 65 1008.7
20260901034525 66 5 0.9 2.6 0.00 0.00 0.00 65 1008.6
20260901034014 66 26 0.9 3.5 0.00 0.00 0.00 65 1008.5
20260901033511 66 339 0.0 3.5 0.00 0.00 0.00 64 1008.5
20260901033043 66 352 1.7 3.5 0.00 0.00 0.00 64 1008.4
20260901032514 66 21 0.9 1.7 0.00 0.00 0.00 64 1008.4
20260901032016 66 360 0.0 1.7 0.00 0.00 0.00 64 1008.3
20260901031512 66 360 0.0 1.7 0.00 0.00 0.00 63 1008.3
20260901031007 67 360 0.0 2.6 0.00 0.00 0.00 63 1008.3
20260901030509 67 317 0.0 3.5 0.00 0.00 0.00 63 1008.3
20260901030014 67 312 1.7 3.5 0.00 0.00 0.00 62 1008.4
20260901025507 67 5 0.9 3.5 0.00 0.00 0.00 62 1008.3
20260901025011 68 30 0.9 4.3 0.00 0.00 0.00 61 1008.3
20260901024525 68 62 0.0 4.3 0.00 0.00 0.00 60 1008.4
20260901024012 68 334 1.7 4.3 0.00 0.00 0.00 59 1008.4
20260901023514 68 44 0.9 7.0 0.00 0.00 0.00 58 1008.4
20260901023032 69 42 1.7 7.0 0.00 0.00 0.00 58 1008.5
20260901022511 69 23 1.7 3.5 0.00 0.00 0.00 57 1008.6
20260901022018 69 26 1.7 3.5 0.00 0.00 0.00 56 1008.5
20260901021527 69 9 0.9 2.6 0.00 0.00 0.00 58 1008.5
20260901021016 69 332 0.9 2.6 0.00 0.00 0.00 59 1008.6
20260901020519 69 307 0.9 2.6 0.00 0.00 0.00 59 1008.6
20260901020008 69 309 0.0 5.2 0.00 0.00 0.00 59 1008.7
20260901015508 69 9 1.7 5.2 0.00 0.00 0.00 58 1008.7
20260901015007 69 320 1.7 4.3 0.00 0.00 0.00 59 1008.7
20260901014513 70 352 1.7 4.3 0.00 0.00 0.00 60 1008.6
20260901014010 70 17 0.9 4.3 0.00 0.00 0.00 60 1008.5
20260901013510 70 349 0.0 4.3 0.00 0.00 0.00 60 1008.5
20260901013018 70 304 0.9 6.1 0.00 0.00 0.00 59 1008.6
20260901012514 70 311 1.7 6.1 0.00 0.00 0.00 59 1008.6
20260901012015 70 347 1.7 6.1 0.00 0.00 0.00 59 1008.6
20260901011524 70 350 1.7 7.0 0.00 0.00 0.00 59 1008.6
20260901011016 70 285 1.7 7.0 0.00 0.00 0.00 58 1008.5
20260901010516 71 29 1.7 7.0 0.00 0.00 0.00 58 1008.6
20260901010037 71 311 1.7 6.1 0.00 0.00 0.00 58 1008.6
20260901005514 71 321 1.7 6.1 0.00 0.00 0.00 57 1008.6
20260901005019 71 314 0.9 7.0 0.00 0.00 0.00 56 1008.6
20260901004516 72 22 1.7 7.0 0.00 0.00 0.00 56 1008.6
20260901004013 72 310 2.6 7.0 0.00 0.00 0.00 55 1008.7
20260901003508 73 315 1.7 7.0 0.00 0.00 0.00 54 1008.6
20260901003017 73 300 2.6 7.8 0.00 0.00 0.00 55 1008.6
20260901002508 73 348 1.7 7.8 0.00 0.00 0.00 55 1008.7
20260901002005 73 317 1.7 5.2 0.00 0.00 0.00 54 1008.7
20260901001510 73 352 0.9 5.2 0.00 0.00 0.00 54 1008.8
20260901001003 74 279 1.7 4.3 0.00 0.00 0.00 53 1008.8
20260901000503 73 351 1.7 4.3 0.00 0.00 0.00 53 1008.9
20260901000006 74 360 0.9 3.5 0.00 0.00 0.00 51 1008.8
20260831235505 74 10 0.9 7.0 0.00 0.00 0.00 51 1008.9
20260831235006 74 34 2.6 7.0 0.00 0.00 0.00 50 1008.9
20260831234526 74 315 3.5 7.0 0.00 0.00 0.00 50 1009.0
20260831234008 74 352 1.7 3.5 0.00 0.00 0.00 51 1009.0
20260831233512 74 53 1.7 3.5 0.00 0.00 0.00 51 1009.1
20260831233017 74 39 0.9 3.5 0.00 0.00 0.00 51 1009.1
20260831232512 74 288 1.7 7.8 0.00 0.00 0.00 49 1009.1
20260831232012 74 300 2.6 7.8 0.00 0.00 0.00 49 1009.1
20260831231503 74 348 2.6 7.0 0.00 0.00 0.00 47 1009.2
20260831231003 75 321 3.5 7.0 0.00 0.00 0.00 48 1009.2
20260831230506 75 360 1.7 8.7 0.00 0.00 0.00 48 1009.2
20260831230004 74 317 2.6 8.7 0.00 0.00 0.00 48 1009.2
20260831225503 74 263 4.3 8.7 0.00 0.00 0.00 49 1009.3
20260831225006 74 309 2.6 7.8 0.00 0.00 0.00 49 1009.4
20260831224508 74 347 2.6 7.8 0.00 0.00 0.00 50 1009.4
20260831224008 73 9 0.9 9.6 0.00 0.00 0.00 51 1009.4
20260831223508 73 18 3.5 8.7 0.00 0.00 0.00 49 1009.5
20260831223012 74 292 3.5 7.8 0.00 0.00 0.00 49 1009.5
20260831222510 73 261 3.5 7.8 0.00 0.00 0.00 53 1009.6
20260831222015 73 5 3.5 7.8 0.00 0.00 0.00 52 1009.6
20260831221525 73 327 3.5 8.7 0.00 0.00 0.00 54 1009.7
20260831221014 73 347 3.5 8.7 0.00 0.00 0.00 52 1009.8
20260831220514 73 311 2.6 7.0 0.00 0.00 0.00 53 1010.0
20260831220010 73 327 2.6 7.0 0.00 0.00 0.00 52 1010.0
20260831215503 73 182 3.5 9.6 0.00 0.00 0.00 55 1010.2
20260831215005 73 254 3.5 9.6 0.00 0.00 0.00 56 1010.2
20260831214507 72 281 1.7 5.2 0.00 0.00 0.00 56 1010.3
20260831214003 72 280 2.6 7.0 0.00 0.00 0.00 55 1010.3
20260831213508 72 248 1.7 7.0 0.00 0.00 0.00 56 1010.4
20260831213027 72 278 3.5 7.0 0.00 0.00 0.00 56 1010.5
20260831212508 71 307 2.6 6.1 0.00 0.00 0.00 56 1010.5
20260831212014 71 294 2.6 9.6 0.00 0.00 0.00 55 1010.6
20260831211516 72 275 1.7 9.6 0.00 0.00 0.00 55 1010.6
20260831211011 72 19 3.5 7.8 0.00 0.00 0.00 55 1010.6
20260831210510 72 307 3.5 8.7 0.00 0.00 0.00 55 1010.7
20260831210023 72 67 2.6 8.7 0.00 0.00 0.00 55 1010.7
20260831205514 72 316 2.6 7.0 0.00 0.00 0.00 56 1010.8
20260831205016 71 275 2.6 7.0 0.00 0.00 0.00 57 1010.8
20260831204504 71 234 2.6 8.7 0.00 0.00 0.00 57 1010.9
20260831204008 71 294 4.3 7.0 0.00 0.00 0.00 56 1011.0
20260831203503 71 5 1.7 5.2 0.00 0.00 0.00 57 1011.1
20260831203007 71 5 1.7 5.2 0.00 0.00 0.00 57 1011.1
20260831202507 72 292 2.6 5.2 0.00 0.00 0.00 56 1011.1
20260831202008 72 11 1.7 5.2 0.00 0.00 0.00 56 1011.2
20260831201517 71 38 1.7 6.1 0.00 0.00 0.00 56 1011.3
20260831201008 72 22 3.5 6.1 0.00 0.00 0.00 56 1011.4
20260831200510 72 17 1.7 5.2 0.00 0.00 0.00 58 1011.4
20260831200030 71 45 2.6 7.0 0.00 0.00 0.00 58 1011.5
20260831195513 71 286 4.3 7.0 0.00 0.00 0.00 58 1011.6
20260831195016 70 352 3.5 9.6 0.00 0.00 0.00 60 1011.6
20260831194527 69 352 2.6 9.6 0.00 0.00 0.00 60 1011.7
20260831194016 69 35 4.3 8.7 0.00 0.00 0.00 61 1011.8
20260831193516 70 37 6.1 8.7 0.00 0.00 0.00 60 1011.9
20260831193011 69 296 2.6 11.3 0.00 0.00 0.00 62 1011.9
20260831192507 69 5 1.7 11.3 0.00 0.00 0.00 63 1011.9
20260831192007 69 45 3.5 8.7 0.00 0.00 0.00 62 1012.0
20260831191510 69 28 4.3 8.7 0.00 0.00 0.00 62 1012.2
20260831191008 69 352 1.7 5.2 0.00 0.00 0.00 62 1012.3
20260831190509 69 49 3.5 7.0 0.00 0.00 0.00 60 1012.3
20260831190018 69 350 2.6 7.0 0.00 0.00 0.00 60 1012.4
20260831185514 69 25 0.9 7.8 0.00 0.00 0.00 62 1012.6
20260831185014 68 352 4.3 7.8 0.00 0.00 0.00 62 1012.6
20260831184531 67 319 2.6 7.8 0.00 0.00 0.00 66 1012.6
20260831184016 66 350 1.7 7.0 0.00 0.00 0.00 67 1012.6
20260831183517 66 308 3.5 7.0 0.00 0.00 0.00 67 1012.6
20260831183027 66 276 2.6 6.1 0.00 0.00 0.00 67 1012.7
20260831182517 65 322 2.6 7.0 0.00 0.00 0.00 67 1012.8
20260831182018 65 255 1.7 7.0 0.00 0.00 0.00 68 1012.8
20260831181512 65 320 2.6 7.0 0.00 0.00 0.00 68 1012.8
20260831181011 65 255 1.7 6.1 0.00 0.00 0.00 69 1012.9
20260831180510 65 313 2.6 7.0 0.00 0.00 0.00 69 1012.9
20260831180017 65 352 3.5 7.0 0.00 0.00 0.00 66 1013.0
20260831175511 66 352 1.7 7.0 0.00 0.00 0.00 64 1013.0
20260831175012 66 322 2.6 7.0 0.00 0.00 0.00 65 1013.0
20260831174522 66 20 1.7 4.3 0.00 0.00 0.00 66 1013.1
20260831174017 65 30 2.6 7.0 0.00 0.00 0.00 66 1013.1
20260831173515 65 50 1.7 7.0 0.00 0.00 0.00 67 1013.2
20260831173027 65 327 1.7 5.2 0.00 0.00 0.00 69 1013.3
20260831172516 65 24 2.6 5.2 0.00 0.00 0.00 69 1013.3
20260831172017 64 83 1.7 6.1 0.00 0.00 0.00 71 1013.3
20260831171533 63 32 1.7 6.1 0.00 0.00 0.00 71 1013.3
20260831171022 63 352 2.6 6.1 0.00 0.00 0.00 72 1013.4
20260831170519 63 38 2.6 6.1 0.00 0.00 0.00 72 1013.4
20260831170017 63 323 1.7 4.3 0.00 0.00 0.00 72 1013.4
20260831165511 62 28 1.7 5.2 0.00 0.00 0.00 73 1013.4
20260831165009 62 57 2.6 7.8 0.00 0.00 0.00 73 1013.5
20260831164518 62 103 1.7 7.8 0.00 0.00 0.00 73 1013.6
20260831164014 62 345 3.5 7.8 0.00 0.00 0.00 75 1013.6
20260831163514 61 13 3.5 7.8 0.00 0.00 0.00 75 1013.6
20260831163025 61 340 2.6 7.8 0.00 0.00 0.00 76 1013.6
20260831162512 61 71 2.6 5.2 0.00 0.00 0.00 77 1013.7
20260831162016 61 348 2.6 5.2 0.00 0.00 0.00 79 1013.8
20260831161531 61 9 2.6 4.3 0.00 0.00 0.00 79 1013.8
20260831161014 60 342 1.7 7.0 0.00 0.00 0.00 80 1013.9
20260831160518 60 348 4.3 7.0 0.00 0.00 0.00 80 1013.9
20260831160042 59 352 0.9 4.3 0.00 0.00 0.00 82 1013.9
20260831155519 60 19 1.7 7.0 0.00 0.00 0.00 82 1013.9
20260831155016 59 16 1.7 7.8 0.00 0.00 0.00 84 1014.0
20260831154541 59 338 4.3 7.8 0.00 0.00 0.00 84 1014.0
20260831154013 58 19 1.7 6.1 0.00 0.00 0.00 85 1014.1
20260831153516 58 352 1.7 7.0 0.00 0.00 0.00 86 1014.1
20260831153044 57 340 4.3 7.0 0.00 0.00 0.00 86 1014.1
20260831152506 57 65 1.7 6.1 0.00 0.00 0.00 86 1014.2
20260831152006 57 324 3.5 5.2 0.00 0.00 0.00 86 1014.2
20260831151506 57 33 1.7 4.3 0.00 0.00 0.00 86 1014.3
20260831151003 57 26 1.7 3.5 0.00 0.00 0.00 87 1014.4
20260831150505 57 360 0.0 2.6 0.00 0.00 0.00 87 1014.4
20260831150011 57 9 1.7 2.6 0.00 0.00 0.00 87 1014.3
20260831145507 57 9 0.9 2.6 0.00 0.00 0.00 88 1014.2
20260831145008 56 348 0.9 2.6 0.00 0.00 0.00 88 1014.2
20260831144513 56 13 0.0 1.7 0.00 0.00 0.00 88 1014.0
20260831144009 56 352 0.0 1.7 0.00 0.00 0.00 89 1014.0
20260831143512 56 9 0.0 1.7 0.00 0.00 0.00 89 1014.0
20260831143017 56 17 0.0 0.0 0.00 0.00 0.00 89 1014.1
20260831142511 56 28 0.0 3.5 0.00 0.00 0.00 90 1014.0
20260831142008 55 28 0.0 3.5 0.00 0.00 0.00 90 1014.1
20260831141511 55 9 0.0 3.5 0.00 0.00 0.00 91 1014.2
20260831141002 54 24 0.0 0.9 0.00 0.00 0.00 91 1014.1
20260831140504 53 26 0.0 0.0 0.00 0.00 0.00 91 1014.2
20260831140013 53 28 0.0 0.0 0.00 0.00 0.00 90 1014.2
20260831135506 53 28 0.0 0.0 0.00 0.00 0.00 91 1014.1
20260831135005 53 28 0.0 0.0 0.00 0.00 0.00 90 1014.1
20260831134514 54 28 0.0 0.0 0.00 0.00 0.00 90 1014.1
20260831134011 54 28 0.0 0.0 0.00 0.00 0.00 89 1014.0
20260831133508 54 28 0.0 0.0 0.00 0.00 0.00 90 1014.0
20260831133016 54 28 0.0 0.0 0.00 0.00 0.00 90 1013.9
20260831132514 54 28 0.0 0.0 0.00 0.00 0.00 89 1013.9
20260831132012 54 28 0.0 0.9 0.00 0.00 0.00 89 1014.0
20260831131527 55 28 0.0 0.9 0.00 0.00 0.00 89 1014.0
20260831131014 55 28 0.0 1.7 0.00 0.00 0.00 89 1014.1
20260831130511 55 28 0.0 1.7 0.00 0.00 0.00 89 1014.1
20260831130007 55 62 0.0 0.0 0.00 0.00 0.00 89 1014.1
20260831125504 55 61 0.0 0.9 0.00 0.00 0.00 89 1014.2
20260831125006 55 61 0.0 1.7 0.00 0.00 0.00 89 1014.2
20260831124508 55 75 0.0 1.7 0.00 0.00 0.00 89 1014.2
20260831124005 55 38 0.0 0.0 0.00 0.00 0.00 89 1014.1
20260831123515 55 43 0.0 0.0 0.00 0.00 0.00 89 1014.2
20260831123026 55 39 0.0 0.0 0.00 0.00 0.00 89 1014.2
20260831122514 55 39 0.0 0.0 0.00 0.00 0.00 88 1014.2
20260831122012 55 32 0.0 0.0 0.00 0.00 0.00 88 1014.3
20260831121529 55 38 0.0 0.0 0.00 0.00 0.00 88 1014.4
20260831121018 55 38 0.0 0.0 0.00 0.00 0.00 88 1014.3
20260831120516 55 352 0.0 1.7 0.00 0.00 0.00 88 1014.4
20260831120043 55 10 0.0 2.6 0.00 0.00 0.00 87 1014.5
20260831115518 56 10 0.0 2.6 0.00 0.00 0.00 87 1014.5
20260831115021 56 16 0.9 2.6 0.00 0.00 0.00 87 1014.5
20260831114531 56 352 0.0 2.6 0.00 0.00 0.00 87 1014.6
20260831114006 56 352 0.0 2.6 0.00 0.00 0.00 87 1014.6
20260831113509 56 9 0.0 1.7 0.00 0.00 0.00 86 1014.7
20260831113012 56 9 0.0 1.7 0.00 0.00 0.00 86 1014.7
20260831112509 56 5 0.9 1.7 0.00 0.00 0.00 86 1014.8
20260831112011 56 19 0.9 1.7 0.00 0.00 0.00 85 1014.9
20260831111518 56 352 0.0 3.5 0.00 0.00 0.00 85 1014.9
20260831111013 57 348 1.7 3.5 0.00 0.00 0.00 85 1014.9
20260831110512 57 35 0.9 3.5 0.00 0.00 0.00 85 1015.0
20260831110024 57 17 0.0 4.3 0.00 0.00 0.00 84 1015.0
20260831105513 57 31 0.0 4.3 0.00 0.00 0.00 84 1015.0
20260831105013 57 352 0.0 1.7 0.00 0.00 0.00 84 1015.1
20260831104537 57 345 0.0 2.6 0.00 0.00 0.00 83 1015.1
20260831104014 57 19 0.9 2.6 0.00 0.00 0.00 83 1015.1
20260831103513 57 15 0.0 1.7 0.00 0.00 0.00 83 1015.1
20260831103026 57 49 0.9 1.7 0.00 0.00 0.00 82 1015.1
20260831102506 57 54 0.9 1.7 0.00 0.00 0.00 82 1015.1
20260831102011 57 49 0.0 2.6 0.00 0.00 0.00 81 1015.2
20260831101522 57 57 0.9 2.6 0.00 0.00 0.00 81 1015.3
20260831101010 57 19 0.0 1.7 0.00 0.00 0.00 81 1015.3
20260831100513 57 18 0.9 1.7 0.00 0.00 0.00 80 1015.3
20260831100026 57 32 0.9 1.7 0.00 0.00 0.00 80 1015.4
20260831095514 57 44 0.0 3.5 0.00 0.00 0.00 79 1015.3
20260831095014 58 30 0.9 3.5 0.00 0.00 0.00 79 1015.4
20260831094530 58 11 0.0 7.0 0.00 0.00 0.00 79 1015.4
20260831094017 58 22 2.6 7.0 0.00 0.00 0.00 78 1015.5
20260831093516 58 5 0.9 5.2 0.00 0.00 0.00 78 1015.7
20260831093030 58 16 0.9 3.5 0.00 0.00 0.00 78 1015.8
20260831092514 58 21 0.9 3.5 0.00 0.00 0.00 78 1015.8
20260831092015 58 48 0.9 2.6 0.00 0.00 0.00 78 1015.9
20260831091529 58 36 0.0 1.7 0.00 0.00 0.00 78 1015.9
20260831091009 58 5 0.0 1.7 0.00 0.00 0.00 78 1016.0
20260831090510 58 5 0.0 1.7 0.00 0.00 0.00 78 1015.9
20260831090021 58 352 0.9 3.5 0.00 0.00 0.00 77 1015.9
20260831085514 58 67 0.9 3.5 0.00 0.00 0.00 78 1015.9
20260831085016 58 44 0.9 2.6 0.00 0.00 0.00 77 1016.0
20260831084523 58 65 0.9 3.5 0.00 0.00 0.00 78 1016.0
20260831084015 58 11 1.7 3.5 0.00 0.00 0.00 78 1016.0
20260831083514 58 350 1.7 3.5 0.00 0.00 0.00 78 1016.0